sat.trackr.live / text

‹ back to catalog

STARLINK-33725

NORAD 63717 · 2025-087W

PAYLOAD ACTIVE UNKNOWN

§ Identity

Operator
Country
US
Launch date
2025-04-28
Launch site
AFWTR
Launch vehicle
Mass (kg)
RCS (m²)

Purposes: comms

External: N2YO · Heavens-Above · Gunter

§ Orbital elements

Epoch: 2026-09-20T19:52:03.832032Z

Period
93.85 min
Inclination
53.1622°
Eccentricity
0.0000962
Mean motion
15.34408708 rev/d
Perigee alt
462.0 km
Apogee alt
463.3 km
Semi-major
6,840.8 km
B*
7.0951e-4
RAAN
31.9191°
Arg perigee
82.1070°
Mean anomaly
278.0042°
Rev number
7,909

§ Raw data

STARLINK-337251 63717U 25087W   26263.82782213  .00023678  00000+0  70951-3 0  99982 63717  53.1622  31.9191 0000962  82.1070 278.0042 15.34408708 79092

JSON: /api/v1/satellites/63717 · /tle

For live sub-satellite position, see the globe view (requires WebGL).

§ Visibility from observer

Set your observer location to see the next 7 days of passes ≥ 10°. The values pass through the URL so the page stays shareable.

No JS? Fill the form by hand. The geolocation button needs JavaScript.